Total_Precipitation_Accumulation
0.14 0.28 0.61 0.71 0.70 0.69 0.78 0.78 0.76 0.72 0.72 0.77 0.79 0.82 0.79 0.72 0.67 0.65 0.67 0.72 0.72 0.78 0.89 0.96 0.99 0.94 0.85 0.80 0.77 0.75 0.72 0.65 0.61 0.56 0.55 0.55 0.53 0.46 0.38 0.35 0.32 0.45 0.60
0.13 0.25 0.58 0.68 0.69 0.75 0.81 0.78 0.72 0.69 0.70 0.75 0.76 0.80 0.80 0.70 0.66 0.67 0.71 0.74 0.79 0.85 0.91 0.94 0.94 0.91 0.81 0.75 0.78 0.75 0.68 0.54 0.45 0.40 0.39 0.41 0.50 0.52 0.46 0.42 0.43 0.58 0.62
0.14 0.24 0.47 0.63 0.65 0.79 0.85 0.78 0.70 0.68 0.69 0.72 0.76 0.78 0.78 0.73 0.69 0.69 0.71 0.72 0.81 0.91 0.94 0.94 0.87 0.82 0.79 0.76 0.71 0.69 0.66 0.53 0.40 0.34 0.31 0.38 0.53 0.62 0.60 0.51 0.50 0.58 0.60
0.17 0.24 0.34 0.59 0.65 0.80 0.86 0.81 0.77 0.74 0.72 0.76 0.79 0.77 0.78 0.81 0.80 0.74 0.72 0.78 0.83 0.94 1.01 0.93 0.83 0.80 0.80 0.75 0.64 0.61 0.61 0.51 0.39 0.32 0.24 0.34 0.57 0.78 0.68 0.59 0.54 0.54 0.56
0.18 0.21 0.38 0.63 0.68 0.79 0.87 0.89 0.87 0.86 0.85 0.84 0.84 0.77 0.77 0.80 0.79 0.76 0.76 0.80 0.84 0.89 0.91 0.91 0.86 0.83 0.79 0.72 0.61 0.56 0.62 0.59 0.40 0.24 0.25 0.30 0.51 0.93 0.73 0.64 0.58 0.54 0.54
0.19 0.24 0.44 0.70 0.82 0.86 0.88 0.94 0.94 0.92 0.96 0.99 0.95 0.89 0.89 0.88 0.85 0.79 0.76 0.76 0.79 0.84 0.88 0.86 0.85 0.83 0.81 0.73 0.63 0.61 0.68 0.70 0.40 0.24 0.31 0.36 0.51 0.91 0.82 0.72 0.63 0.56 0.55
0.21 0.28 0.45 0.77 0.96 0.96 0.94 0.98 1.02 1.07 1.13 1.17 1.13 1.08 1.05 1.01 0.97 0.92 0.85 0.77 0.72 0.72 0.75 0.80 0.80 0.81 0.85 0.78 0.70 0.76 0.80 0.71 0.41 0.37 0.32 0.35 0.56 0.87 0.89 0.82 0.72 0.64 0.59
0.27 0.35 0.54 0.92 1.06 1.04 1.05 1.09 1.11 1.15 1.23 1.25 1.23 1.20 1.14 1.07 1.04 1.06 0.99 0.84 0.73 0.64 0.62 0.65 0.69 0.75 0.77 0.75 0.76 0.85 0.81 0.55 0.29 0.22 0.23 0.32 0.57 0.91 1.14 1.05 0.85 0.72 0.64
0.38 0.47 0.68 0.91 1.10 1.18 1.17 1.15 1.13 1.19 1.24 1.29 1.27 1.24 1.17 1.06 1.05 1.03 0.98 0.88 0.76 0.68 0.62 0.60 0.62 0.67 0.67 0.69 0.72 0.72 0.60 0.41 0.25 0.28 0.23 0.34 0.56 0.99 1.35 1.24 1.00 0.81 0.71
0.60 0.67 0.83 1.02 1.10 1.15 1.19 1.17 1.13 1.13 1.17 1.23 1.23 1.20 1.08 1.02 0.99 0.98 0.90 0.82 0.75 0.74 0.69 0.62 0.61 0.63 0.58 0.54 0.55 0.54 0.46 0.36 0.25 0.29 0.34 0.37 0.47 0.92 1.37 1.35 1.19 1.00 0.86
0.86 0.97 1.06 1.20 1.26 1.31 1.31 1.22 1.24 1.22 1.23 1.23 1.20 1.13 1.08 1.03 0.98 0.94 0.85 0.79 0.78 0.78 0.71 0.64 0.60 0.61 0.57 0.49 0.45 0.44 0.40 0.31 0.27 0.34 0.38 0.37 0.49 0.93 1.42 1.48 1.35 1.20 1.10
0.87 1.04 1.12 1.28 1.36 1.44 1.40 1.41 1.43 1.28 1.24 1.23 1.14 1.06 1.04 1.02 0.98 0.88 0.85 0.80 0.79 0.81 0.82 0.79 0.70 0.63 0.55 0.46 0.47 0.46 0.37 0.31 0.33 0.29 0.29 0.31 0.55 1.01 1.42 1.54 1.48 1.34 1.28
0.91 1.09 1.26 1.37 1.53 1.57 1.54 1.52 1.51 1.43 1.33 1.30 1.20 1.19 1.20 1.21 1.13 1.05 0.96 0.89 0.88 0.87 0.93 0.93 0.94 0.80 0.70 0.61 0.58 0.50 0.39 0.38 0.35 0.31 0.25 0.29 0.47 0.88 1.29 1.51 1.60 1.58 1.55
1.06 1.18 1.40 1.62 1.76 1.79 1.75 1.65 1.52 1.42 1.34 1.34 1.30 1.30 1.35 1.32 1.23 1.11 1.03 0.93 0.89 0.88 0.90 0.97 1.00 0.93 0.84 0.73 0.68 0.60 0.52 0.44 0.37 0.36 0.31 0.31 0.36 0.61 0.94 1.22 1.47 1.69 1.77
1.07 1.22 1.47 1.68 1.84 1.91 2.01 1.96 1.68 1.52 1.38 1.35 1.38 1.32 1.27 1.28 1.24 1.15 1.04 0.93 0.85 0.81 0.81 0.84 0.85 0.89 0.87 0.80 0.73 0.65 0.62 0.56 0.46 0.40 0.34 0.33 0.32 0.42 0.64 0.92 1.22 1.61 1.89
1.13 1.25 1.50 1.76 1.94 2.01 1.97 2.02 1.94 1.79 1.62 1.52 1.42 1.33 1.26 1.21 1.20 1.12 1.02 0.89 0.80 0.73 0.69 0.68 0.66 0.70 0.75 0.73 0.67 0.61 0.55 0.54 0.53 0.49 0.44 0.41 0.33 0.36 0.48 0.74 1.03 1.35 1.74
1.16 1.45 1.64 1.90 2.13 2.16 2.05 1.99 2.05 2.08 1.96 1.83 1.62 1.46 1.37 1.27 1.19 1.18 1.13 1.05 0.95 0.86 0.80 0.74 0.67 0.63 0.64 0.65 0.66 0.64 0.56 0.52 0.52 0.54 0.53 0.50 0.43 0.36 0.39 0.58 0.83 1.10 1.44
1.20 1.46 1.80 2.02 2.20 2.19 2.20 2.20 2.13 2.15 2.17 1.98 1.81 1.68 1.53 1.39 1.28 1.28 1.23 1.12 1.07 1.06 0.99 0.93 0.84 0.78 0.68 0.62 0.62 0.66 0.62 0.56 0.53 0.54 0.56 0.53 0.51 0.42 0.37 0.42 0.62 0.91 1.21
1.14 1.34 1.69 2.02 2.14 2.19 2.24 2.38 2.40 2.37 2.28 2.13 1.95 1.78 1.68 1.55 1.38 1.27 1.25 1.18 1.11 1.08 1.04 1.01 0.98 0.93 0.87 0.77 0.71 0.69 0.68 0.63 0.56 0.55 0.58 0.58 0.59 0.55 0.51 0.42 0.44 0.61 0.91
1.15 1.34 1.59 1.99 2.22 2.39 2.45 2.48 2.56 2.55 2.45 2.32 2.17 1.94 1.84 1.76 1.62 1.43 1.32 1.27 1.25 1.19 1.09 0.99 0.97 0.98 0.96 0.90 0.84 0.77 0.74 0.72 0.66 0.60 0.63 0.70 0.68 0.61 0.60 0.58 0.51 0.45 0.55
1.16 1.29 1.49 1.84 2.05 2.31 2.38 2.29 2.19 2.23 2.22 2.24 2.25 2.18 2.06 1.97 1.87 1.72 1.54 1.43 1.41 1.34 1.23 1.08 0.99 0.97 0.96 0.93 0.95 0.88 0.80 0.72 0.64 0.56 0.56 0.67 0.77 0.77 0.73 0.74 0.75 0.64 0.53
1.07 1.21 1.38 1.66 1.89 2.04 2.08 2.06 2.01 1.98 2.02 2.07 2.14 2.23 2.25 2.16 2.02 1.92 1.76 1.61 1.50 1.47 1.39 1.26 1.14 1.06 0.99 0.92 0.96 0.99 0.88 0.79 0.66 0.52 0.45 0.50 0.58 0.67 0.70 0.72 0.79 0.83 0.73
1.06 1.16 1.29 1.51 1.70 1.92 2.13 2.26 2.28 2.36 2.31 2.16 2.05 2.07 2.14 2.13 2.03 1.92 1.83 1.79 1.72 1.60 1.49 1.42 1.35 1.26 1.17 1.06 0.97 1.16 1.15 0.89 0.63 0.48 0.43 0.43 0.42 0.46 0.51 0.57 0.65 0.71 0.81
1.04 1.19 1.35 1.53 1.75 1.89 2.13 2.25 2.12 2.09 2.16 1.98 1.86 1.82 1.96 2.11 2.09 1.99 1.93 1.90 1.81 1.70 1.56 1.48 1.50 1.48 1.45 1.40 1.24 1.10 1.03 0.91 0.90 0.66 0.43 0.40 0.37 0.35 0.36 0.41 0.48 0.55 0.66
1.09 1.20 1.41 1.56 1.78 1.95 2.06 2.13 2.06 1.95 1.89 1.97 2.06 2.02 1.94 1.97 2.08 2.07 1.97 1.94 1.86 1.74 1.66 1.58 1.49 1.51 1.52 1.50 1.42 1.27 1.13 0.95 0.86 0.92 0.66 0.46 0.45 0.42 0.40 0.41 0.42 0.45 0.52
1.07 1.20 1.36 1.61 1.78 1.99 2.10 2.07 1.92 1.81 1.76 1.83 1.92 2.08 2.11 2.05 2.07 2.10 2.01 1.95 1.86 1.72 1.64 1.66 1.60 1.55 1.54 1.53 1.48 1.39 1.32 1.23 1.00 0.99 0.88 0.59 0.52 0.50 0.48 0.47 0.48 0.48 0.53